カタログに戻る

STARLINK-32667

運用中通信VLEO
NORAD 62201·PAYLOAD·🇺🇸 United States

打ち上げ Dec 4, 2024 から Cape Canaveral Space Force Station

Loading…

次のパス (今後24時間)

TLE

最新Source: CelesTrak SupGP

元期: Sep 15, 2026, 02:37 UTC

1 62201C 24229K   26258.10951389  .00004919  00000+0  17813-3 0  2582
2 62201  42.9998 280.5969 0001201 265.2515 145.5179 15.27582058    19

AllMySatでSTARLINK-32667をリアルタイム追跡

Download on the App Store